Regional Weather Roundup
Issued by NWS Glasgow, MT

Home | Current Version | Previous Version | Text Only | Print | Product List | Glossary On
Versions: 1 2 3 4 5 6 7 8 9 10 11 12 13 14 15 16 17 18 19 20 21 22 23 24 25 26 27 28 29 30 31 32 33 34 35 36 37 38 39 40 41 42 43 44 45 46 47 48 49 50
000
ASUS45 KGGW 290415
RWRGGW
HOURLY WEATHER ROUNDUP FOR NORTHEAST MONTANA
NATIONAL WEATHER SERVICE GLASGOW MONTANA
1000 PM MDT SAT MAR 28 2015

NOTE: "FAIR" INDICATES FEW OR NO CLOUDS BELOW 12,000 FEET WITH NO
SIGNIFICANT WEATHER AND/OR OBSTRUCTIONS TO VISISBILITY.

NORTHEAST MONTANA


CITY           SKY/WX    TMP DP  RH WIND       PRES   REMARKS
GLASGOW        LGT RAIN  44  40  85 NW37G47   29.83R
PLENTYWOOD       N/A     44  41  89 NW21G35     N/A
WOLF POINT     LGT RAIN  47  43  86 W20       29.74R FOG
JORDAN           N/A     42  38  85 NW30G37   29.87R
WINNETT          N/A     44  38  79 W26G43      N/A
SIDNEY         MOCLDY    48  39  71 W29G36    29.67S
GLENDIVE         N/A     46  36  66 W23G31    29.75S
MALTA            N/A     47  40  76 NW18G30     N/A

FORT PECK REPORTS


CITY           SKY/WX    TMP DP  RH WIND       PRES   REMARKS
FORT PECK        N/A     46  46 100 W31G46      N/A
THE PINES        N/A     44  41  89 NW14G35     N/A

SOUTHEAST MONTANA


CITY           SKY/WX    TMP DP  RH WIND       PRES   REMARKS
BILLINGS       MOCLDY    51  20  29 NW25G38   30.06R
MILES CITY     PTCLDY    49  32  52 NW47G63   29.84R HAZE
BAKER          CLEAR     47  33  58 W21       29.79R
LIVINGSTON     PTCLDY    46  19  34 W26       30.14R

CENTRAL MONTANA


CITY           SKY/WX    TMP DP  RH WIND       PRES   REMARKS
HAVRE          CLOUDY    43  40  89 SW10      30.05R
LEWISTOWN      CLOUDY    40  37  89 W10       30.12R
GREAT FALLS    CLOUDY    47  26  44 W15G23    30.11R
CUT BANK       CLEAR     40  29  64 W16       30.07R
HELENA         PTCLDY    47  26  44 W18G25    30.19R
BUTTE          CLEAR     38  21  50 NW10      30.26R
BOZEMAN        CLOUDY    45  20  36 W5        30.23R

WESTERN MONTANA


CITY           SKY/WX    TMP DP  RH WIND       PRES   REMARKS
MISSOULA       MOCLDY    45  31  58 W17       30.31R
KALISPELL      NOT AVBL

NORTH DAKOTA


CITY           SKY/WX    TMP DP  RH WIND       PRES   REMARKS
WILLISTON      CLOUDY    48  41  76 W23G35    29.60F
DICKINSON      PTCLDY    44  36  73 W12       29.68R
MINOT          CLOUDY    52  47  83 W15       29.51R
BISMARCK       LGT RAIN  54  50  86 W22G30    29.63R

SOUTHERN SASKATCHEWAN


CITY           SKY/WX    TMP DP  RH WIND       PRES   REMARKS
REGINA         CLOUDY    39  36  87 NW21G29   29.72R
ESTEVAN        LGT RAIN  46  45  93 NW17G29   29.58R
SWIFT CURRENT  CLOUDY    37  37 100 NW20G26   29.88R



USA.gov is the U.S. government's official web portal to all federal, state and local government web resources and services.